This is the latest recevied weather packets stored in our database for station/object R2AJV-13. If no packets are shown the sender has not sent any weather packets the latest 1 day(s).
| Time | Temp. | Humidity | Pressure | Rain* | Wind** | Luminosity | Snow |
|---|---|---|---|---|---|---|---|
| 1778105772 | 7.78° C | 65% | 998.9 hPa | 0 mm | - | - | - |
| 1778103046 | 10° C | 59% | 998.9 hPa | 0 mm | - | - | - |
| 1778101257 | 10.56° C | 57% | 998.9 hPa | 0 mm | - | - | - |
| 1778098525 | 11.11° C | 62% | 999.2 hPa | 0 mm | - | - | - |
| 1778091372 | 13.33° C | 65% | 997.8 hPa | 0 mm | - | - | - |
| 1778085037 | 17.22° C | 50% | 996.6 hPa | 0 mm | - | - | - |
| 1778083276 | 18.33° C | 47% | 996.4 hPa | 0 mm | - | - | - |
| 1778082371 | 19.44° C | 47% | 996.2 hPa | 0 mm | - | - | - |
| 1778076973 | 21.11° C | 44% | 995.7 hPa | 0 mm | - | - | - |
| 1778074247 | 21.67° C | 45% | 995.6 hPa | 0 mm | - | - | - |
| 1778066150 | 19.44° C | 50% | 994.8 hPa | 0 mm | - | - | - |
| 1778065238 | 20° C | 50% | 994.8 hPa | 0 mm | - | - | - |
| 1778059846 | 20° C | 57% | 994.1 hPa | 0 mm | - | - | - |
| 1778058053 | 20.56° C | 56% | 993.9 hPa | 0 mm | - | - | - |
| 1778056237 | 19.44° C | 59% | 993.9 hPa | 0.25 mm | - | - | - |
| 1778055327 | 19.44° C | 64% | 994 hPa | 0.25 mm | - | - | - |
| 1778054416 | 18.33° C | 67% | 993.9 hPa | 0.25 mm | - | - | - |
| 1778051750 | 15.56° C | 79% | 993.8 hPa | 0 mm | - | - | - |
| 1778050839 | 13.89° C | 93% | 994.1 hPa | 0 mm | - | - | - |
| 1778049928 | 13.33° C | 93% | 993.8 hPa | 0 mm | - | - | - |
| 1778049023 | 13.33° C | 91% | 993.7 hPa | 0 mm | - | - | - |
| 1778047262 | 14.44° C | 85% | 993.7 hPa | 0 mm | - | - | - |
| 1778045447 | 15° C | 77% | 993.9 hPa | 0 mm | - | - | - |
| 1778044536 | 15.56° C | 74% | 993.6 hPa | 0 mm | - | - | - |
| 1778042759 | 15.56° C | 73% | 993.1 hPa | 0 mm | - | - | - |
* Rain latest hour (hover to see other rain measurements)
** Current wind speed in m/s (hover to see current wind gust speed)